<?xml version='1.0' encoding='UTF-8'?>
<gpx xmlns="http://www.topografix.com/GPX/1/1" creator="www.balnam.be" version="1.1" xmlns:xsi="http://www.w3.org/2001/XMLSchema-instance" xsi:schemaLocation="http://www.topografix.com/GPX/1/1 http://www.topografix.com/GPX/1/1/gpx.xsd">
<trk>
<name>lfxnv10</name>
<cmt>s</cmt>
<desc>Noville (Fexhe-ht-clocher) Chemin n°10 </desc>
<link href="https://chemins.be/novillefexhehtclocher/chemin/10"/><trkseg>
<trkpt lat="50.649965" lon="5.377699"><time>2026-05-02T15:04:25Z</time></trkpt>
<trkpt lat="50.649711" lon="5.376547"><time>2026-05-02T15:14:25Z</time></trkpt>
</trkseg>
</trk>
<trk>
<name>lfxnv12</name>
<cmt>s</cmt>
<desc>Noville (Fexhe-ht-clocher) Chemin n°12 </desc>
<link href="https://chemins.be/novillefexhehtclocher/chemin/12"/><trkseg>
<trkpt lat="50.663623" lon="5.380522"><time>2026-05-02T15:04:25Z</time></trkpt>
<trkpt lat="50.664267" lon="5.379263"><time>2026-05-02T15:14:25Z</time></trkpt>
<trkpt lat="50.666670" lon="5.378004"><time>2026-05-02T15:24:25Z</time></trkpt>
<trkpt lat="50.667921" lon="5.377775"><time>2026-05-02T15:34:25Z</time></trkpt>
</trkseg>
</trk>
<trk>
<name>lfxnv14</name>
<cmt>q</cmt>
<desc>Noville (Fexhe-ht-clocher) Sentier n°14 </desc>
<link href="https://chemins.be/novillefexhehtclocher/sentier/14"/><trkseg>
<trkpt lat="50.661784" lon="5.375510"><time>2026-05-02T15:04:25Z</time></trkpt>
<trkpt lat="50.659572" lon="5.368100"><time>2026-05-02T15:14:25Z</time></trkpt>
</trkseg>
</trk>
<trk>
<name>lfxnv15</name>
<cmt>q</cmt>
<desc>Noville (Fexhe-ht-clocher) Sentier n°15 </desc>
<link href="https://chemins.be/novillefexhehtclocher/sentier/15"/><trkseg>
<trkpt lat="50.660661" lon="5.382719"><time>2026-05-02T15:04:25Z</time></trkpt>
<trkpt lat="50.660184" lon="5.385806"><time>2026-05-02T15:14:25Z</time></trkpt>
<trkpt lat="50.660804" lon="5.387927"><time>2026-05-02T15:24:25Z</time></trkpt>
<trkpt lat="50.661450" lon="5.390119"><time>2026-05-02T15:34:25Z</time></trkpt>
</trkseg>
</trk>
<trk>
<name>lfxnv16</name>
<cmt>q</cmt>
<desc>Noville (Fexhe-ht-clocher) Sentier n°16 </desc>
<link href="https://chemins.be/novillefexhehtclocher/sentier/16"/><trkseg>
<trkpt lat="50.658030" lon="5.380989"><time>2026-05-02T15:04:25Z</time></trkpt>
<trkpt lat="50.657241" lon="5.379193"><time>2026-05-02T15:14:25Z</time></trkpt>
<trkpt lat="50.657527" lon="5.377069"><time>2026-05-02T15:24:25Z</time></trkpt>
<trkpt lat="50.657488" lon="5.374587"><time>2026-05-02T15:34:25Z</time></trkpt>
</trkseg>
</trk>
<trk>
<name>lfxnv17</name>
<cmt>q</cmt>
<desc>Noville (Fexhe-ht-clocher) Sentier n°17 </desc>
<link href="https://chemins.be/novillefexhehtclocher/sentier/17"/><trkseg>
<trkpt lat="50.649758" lon="5.376413"><time>2026-05-02T15:04:25Z</time></trkpt>
<trkpt lat="50.650833" lon="5.373205"><time>2026-05-02T15:14:25Z</time></trkpt>
</trkseg>
</trk>
<trk>
<name>lfxnv3</name>
<cmt>v</cmt>
<desc>Noville (Fexhe-ht-clocher) Chemin n°3 </desc>
<link href="https://chemins.be/novillefexhehtclocher/chemin/3"/><trkseg>
<trkpt lat="50.662528" lon="5.361691"><time>2026-05-02T15:04:25Z</time></trkpt>
<trkpt lat="50.662238" lon="5.365267"><time>2026-05-02T15:14:25Z</time></trkpt>
<trkpt lat="50.662002" lon="5.369727"><time>2026-05-02T15:24:25Z</time></trkpt>
</trkseg></trk>
<trk>
<name>lfxnv3</name>
<cmt>s</cmt>
<desc>Noville (Fexhe-ht-clocher) Chemin n°3 </desc>
<link href="https://chemins.be/novillefexhehtclocher/chemin/3"/><trkseg>
<trkpt lat="50.662002" lon="5.369727"><time>2026-05-02T15:24:25Z</time></trkpt>
<trkpt lat="50.661775" lon="5.375467"><time>2026-05-02T15:34:25Z</time></trkpt>
<trkpt lat="50.662165" lon="5.377191"><time>2026-05-02T15:44:25Z</time></trkpt>
</trkseg>
</trk>
<trk>
<name>lfxnv4</name>
<cmt>s</cmt>
<desc>Noville (Fexhe-ht-clocher) Chemin n°4 </desc>
<link href="https://chemins.be/novillefexhehtclocher/chemin/4"/><trkseg>
<trkpt lat="50.659105" lon="5.381911"><time>2026-05-02T15:04:25Z</time></trkpt>
<trkpt lat="50.658284" lon="5.384007"><time>2026-05-02T15:14:25Z</time></trkpt>
<trkpt lat="50.657363" lon="5.384908"><time>2026-05-02T15:24:25Z</time></trkpt>
<trkpt lat="50.655595" lon="5.386639"><time>2026-05-02T15:34:25Z</time></trkpt>
<trkpt lat="50.655219" lon="5.388041"><time>2026-05-02T15:44:25Z</time></trkpt>
</trkseg>
</trk>
<trk>
<name>lfxnv5</name>
<cmt>v</cmt>
<desc>Noville (Fexhe-ht-clocher) Chemin n°5 </desc>
<link href="https://chemins.be/novillefexhehtclocher/chemin/5"/><trkseg>
<trkpt lat="50.662960" lon="5.385763"><time>2026-05-02T15:04:25Z</time></trkpt>
<trkpt lat="50.662477" lon="5.386614"><time>2026-05-02T15:14:25Z</time></trkpt>
</trkseg></trk>
<trk>
<name>lfxnv5</name>
<cmt>s</cmt>
<desc>Noville (Fexhe-ht-clocher) Chemin n°5 </desc>
<link href="https://chemins.be/novillefexhehtclocher/chemin/5"/><trkseg>
<trkpt lat="50.662477" lon="5.386614"><time>2026-05-02T15:14:25Z</time></trkpt>
<trkpt lat="50.661621" lon="5.388392"><time>2026-05-02T15:24:25Z</time></trkpt>
<trkpt lat="50.660887" lon="5.387948"><time>2026-05-02T15:34:25Z</time></trkpt>
<trkpt lat="50.659495" lon="5.389736"><time>2026-05-02T15:44:25Z</time></trkpt>
<trkpt lat="50.657359" lon="5.393084"><time>2026-05-02T15:54:25Z</time></trkpt>
</trkseg>
</trk>
<trk>
<name>lfxnv8</name>
<cmt>s</cmt>
<desc>Noville (Fexhe-ht-clocher) Chemin n°8 </desc>
<link href="https://chemins.be/novillefexhehtclocher/chemin/8"/><trkseg>
<trkpt lat="50.657804" lon="5.376187"><time>2026-05-02T15:04:25Z</time></trkpt>
<trkpt lat="50.656856" lon="5.370668"><time>2026-05-02T15:14:25Z</time></trkpt>
</trkseg>
</trk>
<trk>
<name>lfxnv9</name>
<cmt>s</cmt>
<desc>Noville (Fexhe-ht-clocher) Chemin n°9 </desc>
<link href="https://chemins.be/novillefexhehtclocher/chemin/9"/><trkseg>
<trkpt lat="50.677031" lon="5.353961"><time>2026-05-02T15:04:25Z</time></trkpt>
<trkpt lat="50.675984" lon="5.351393"><time>2026-05-02T15:14:25Z</time></trkpt>
</trkseg>
</trk>
</gpx>